Погода в Жарыке

Погода в Жарыке : погода сейчас, прогноз погоды и архив. Всё, что Вы хотите узнать о погоде в Жарыке!

Поиск расширенной информации на нашем сайте:

Другие новости

Новости СМИ2

Главная страница сайта

Новости сайта

03.07.2017

Напоминаем, что на нашем специализированном сайте Метеоцентр.Азия вы можете получить высокодетализированные автоматические прогнозы погоды по пунктам России, СНГ и мира в авиационном формате (включающие направление и скорость ветра, видимость, явления погоды, количество и форму облачности, нижнюю и верхнюю границу облачности).


Погода в Жарыке - сегодня

Время (UTC), дата Ветер
(°,м/с) 
Видим.   Явления Облачность Т
(°С)
Тd
(°С)
f(%) Тe
(°С)
Pmin
(гПа)
dP
(гПа)
Po
(мм)
O2
(г/м3)
Тmin Tmax R s Состояние
почвы
12 21.04.18 160 (Ю) 20000 м    8/0 верхняя 
[Ci sp]
+16.8 -2.3 27 +17  1009.1  -1.6  701  266           
15 21.04.18 160 (Ю) н/о    9/4 1000 м верхняя 
[Sc|Ci fib]
+12 +1.3 48 +13  1009.9  -0.4  701  270    +18.2       
18 21.04.18 160 (Ю) н/о    8/6 1000 м верхняя 
[Sc|Ci fib]
+10.8 +0.5 49 +10  1009.8  -0.4  701  271    +18.2       
21 21.04.18 160 (Ю) н/о    10/10 1000 м 
[Sc]
+8.6 -0.2 54 +9  1010.4  701  274           
00 22.04.18 160 (Ю) 20000 м    10/10 1000 м 
[Sc]
+9.2 +0 53 +8  1009.3  -0.9  700  273           
03 22.04.18 160 (Ю) 20000 м    10/10 1000 м 
[Sc]
+13 +0.9 44 +12  1008.2  700  269           
06 22.04.18 180 (Ю) 20000 м    10/10 1000 м 
[Sc]
+19 +1.8 32 +19  1006.4  -0.2  700  263  +8.6         
09 22.04.18 180 (Ю) 7{15}  10 км  слаб. ливневой дождь  10/10 600 м кучево-дожд. 
[Cb cap]
+12 +7.8 75 +11  1009.9  1.6  701  269           
12 22.04.18 160 (Ю) 20000 м  {ливн. осадки}  10/10 600 м кучево-дожд. 
[Cb cap]
+15 +8.7 66 +17  1007.4  -1.5  700  266           
15 22.04.18 180 (Ю) н/о  слаб. ливневой дождь  10/10 600 м кучево-дожд. 
[Cb cap]
+11.9 +9.2 84 +13  1010.1  1.7  701  269    +19.5       
18 22.04.18 140 (ЮВ) н/о  {ливн. осадки}  10/10 600 м кучево-дожд. 
[Cb cap]
+10.6 +8.9 89 +12  1008.6  -1.7  700  270    +1.9     
21 22.04.18 180 (Ю) н/о  {ливн. осадки}  10/10 600 м кучево-дожд. 
[Cb cap]
+10.2 +8 86 +11  1009.3  0.5  700  270           
00 23.04.18 230 (ЮЗ) 10 км  слаб. ливневой дождь  10/10 600 м кучево-дожд. 
[Cb cap]
+9 +8.6 97 +11  1010.4  0.7  701  272           
03 23.04.18 140 (ЮВ) 10 км  слаб. ливневой дождь  10/10 600 м кучево-дожд. 
[Cb cap]
+8.9 +8.1 95 +10  1011.2  0.7  701  272           
09 23.04.18 270 (З) 20000 м    8/8 600 м кучево-дожд. 
[Cb cap]
+14.4 +5.6 55 +16  1011.7  0.4  703  268           
12 23.04.18 230 (ЮЗ) 20000 м    8/8 600 м кучево-дожд. 
[Cb cap]
+14.4 +6.6 59 +15  1012.5  0.8  703  268           
15 23.04.18 180 (Ю) н/о    8/4 600 м кучево-дожд., верхняя 
[Cb cap|Ci sp]
+10.8 +8.2 84 +10  1014.5  704  271    +16.5       
18 23.04.18 140 (ЮВ) н/о    5/0 верхняя 
[Ci sp]
+9 +6.7 85 +9  1015.5  0.4  704  273    +16.5  0.0     
21 23.04.18 140 (ЮВ) н/о    3/0 верхняя 
[Ci fib]
+8 +6.1 88 +8  1014  -1.7  703  274           
00 24.04.18 140 (ЮВ) 20000 м    8/5 600 м кучево-дожд., верхняя 
[Cb cap|Ci sp]
+9 +6.7 85 +9  1012.9  -0.7  702  273           
03 24.04.18 110 (В) 20000 м    9/5 600 м кучево-дожд., верхняя 
[Cb cap|Ci sp]
+11.6 +8.5 81 +12  1010.4  -1.6  701  269           
06 24.04.18 140 (ЮВ) 20000 м    9/6 600 м кучево-дожд., средняя, верхняя 
[Cb cap|Ac lent|Ci sp]
+16.4 +5.8 49 +16  1006  -3  699  265  +8         
09 24.04.18 140 (ЮВ) 20000 м    9/4 1000 м средняя, верхняя 
[Sc|Ac lent|Ci sp]
+21 +8.3 44 +21  1000.3  -4.1  696  259           
12 24.04.18 180 (Ю) 20000 м    10/10 600 м кучево-дожд. 
[Cb cap]
+20 +9.2 50 +22  997.6  -2.7  694  259           
15 24.04.18 340 (С) н/о  ливневой дождь  10/10 600 м кучево-дожд. 
[Cb cap]
+9.8 +8.4 91 +9  1004.3  3.7  697  269    +22       
Время (UTC), дата Ветер
(°,м/с) 
Видим.   Явления Облачность Т
(°С)
Тd
(°С)
f(%) Тe
(°С)
Pmin
(гПа)
dP
(гПа)
Po
(мм)
O2
(г/м3)
Тmin Tmax R s Состояние
почвы

Для получения пояснительной информации подведите курсор к названию столбца.

ПОГОДА в Жарыке - архив

Всё, что Вы хотите узнать о погоде в Жарыке - удобно и подробно!

Выберите нужную дату (начиная с 1 января 2015* года) и нажмите кнопку "Найти".
Будут отображены архивные сводки погоды по пункту Жарык, начиная с указанной даты.


Отображать данные в формате CSV (для использования в таблицах Excel)


Внимание! Наш архив погоды предназначен исключительно для личного некоммерческого использования в познавательных целях. Если Вам необходимы официальные справки о состоянии погоды (для производственных, юридических, коммерческих и т.п. целей), обращайтесь в органы Росгидромета.

*Примечание: данная дата относится к архиву по метеостанциям СССР (Россия, СНГ, Балтия).
Архив по метеостанциям Зарубежной Европы и Азии (кроме Китая) хранится 10 дней, по другим регионам земного шара (Китай, Африка, Америка, Австралия, Океания) - 1 день.

Жарык - район местоположения метеостанции


Название, широта, долгота, высота метеостанции:
Жарык 48.9°ш. 72.9°д. 656 м над ур. моря [Казахстан]

Дополнительная информация

В oтличие oт бoльшинства пoгoдных сайтoв мы публикуем пoдрoбную метеoинфoрмацию в детальнoм прoфессиoнальнoм фoрмате.

Характеристики температуры и влажнoсти вoздуха измеряются на высoте 2 м в тени вдали oт зданий и деревьев.
Скoрoсть ветра измеряется на высoте 10 м (на урoвне рoста челoвека скoрoсть ветра ниже в 1.5-2 раза). Если метеoстанция нахoдится в гoрoде или в лесу, тo скoрoсть ветра занижена на 2-4 м/с пo сравнению с oткрытым местoм. Скoрoсть ветра над акватoриями крупных рек и oзёр, а также на вершинах хoлмoв на 2-5 м/с выше, чем в oбычных услoвиях.
Атмoсфернoе давление в разных тoчках местнoсти мoжет значительнo oтличаться oт давления на метеoстанции, в зависимoсти oт услoвий рельефа (при пoдъёме на 10 м давление пoнижается примернo на 1 мм рт.ст.).